This is the latest recevied weather packets stored in our database for station/object ZR6G-15. If no packets are shown the sender has not sent any weather packets the latest 10 day(s).
| Time | Temp. | Humidity | Pressure | Rain* | Wind** | Luminosity | Snow |
|---|---|---|---|---|---|---|---|
| 1777802501 | 25° C | 17% | 1013 hPa | - | - | - | - |
| 1777801896 | 25° C | 17% | 1013.3 hPa | - | - | - | - |
| 1777801292 | 25° C | 17% | 1013.5 hPa | - | - | - | - |
| 1777800687 | 25° C | 17% | 1013.8 hPa | - | - | - | - |
| 1777800083 | 23.89° C | 17% | 1014.2 hPa | - | - | - | - |
| 1777799478 | 23.89° C | 17% | 1014.8 hPa | - | - | - | - |
| 1777798873 | 22.78° C | 17% | 1015 hPa | - | - | - | - |
| 1777798269 | 22.78° C | 17% | 1015.5 hPa | - | - | - | - |
| 1777797664 | 21.67° C | 19% | 1016.1 hPa | - | - | - | - |
| 1777797059 | 20.56° C | 19% | 1016.8 hPa | - | - | - | - |
| 1777796454 | 20° C | 20% | 1017.6 hPa | - | - | - | - |
| 1777795850 | 18.89° C | 25% | 1018.2 hPa | - | - | - | - |
| 1777795245 | 17.78° C | 27% | 1018.8 hPa | - | - | - | - |
| 1777794641 | 16.67° C | 28% | 1019.6 hPa | - | - | - | - |
| 1777794036 | 16.67° C | 30% | 1020.1 hPa | - | - | - | - |
| 1777793432 | 15.56° C | 34% | 1020.7 hPa | - | - | - | - |
| 1777792827 | 15° C | 34% | 1021 hPa | - | - | - | - |
| 1777792223 | 13.89° C | 39% | 1021.3 hPa | - | - | - | - |
| 1777791618 | 13.89° C | 40% | 1021.6 hPa | - | - | - | - |
| 1777791013 | 12.78° C | 43% | 1021.8 hPa | - | - | - | - |
| 1777790409 | 12.78° C | 45% | 1022.2 hPa | - | - | - | - |
| 1777789804 | 11.67° C | 45% | 1022.2 hPa | - | - | - | - |
| 1777789199 | 11.67° C | 46% | 1022.6 hPa | - | - | - | - |
| 1777788595 | 10.56° C | 48% | 1022.9 hPa | - | - | - | - |
| 1777787990 | 10° C | 50% | 1023.1 hPa | - | - | - | - |
* Rain since midnight (hover to see other rain measurements)
** Current wind speed in m/s (hover to see current wind gust speed)